DW9029 San Juan de Aznalfarache ES current weather conditions

sailwx.info

Wind from 017

Air temperature 20.0° C
Dewpoint 15.2° C

Last reported at 2018-May-26 10:04 UTC.
Time now 2018-May-26 10:16 UTC

Location: N 37°22' W 006°02'.
View on Google Maps.

See reports from other nearby stations

  
Tides and Currents Weather Stations Pressure Air Temp Water Temp Dewpoint Dewpoint Depression Visibility Wind Speed Wind Dir Waves Ship Positions
date/time (UTC)wind fromknots sea level pressurealtimeterstation pressurevisibilityair tempwater tempwave heightnotes
2018-May-26 10:04 017 20.0
2018-May-26 09:49 336 0 gusting 4 19.4
2018-May-26 09:44 280 19.4
2018-May-26 09:39 277 0 gusting 2 19.4
2018-May-26 09:34 271 19.4
2018-May-26 09:19 204 0 gusting 6 18.9
2018-May-26 09:14 207 2 gusting 4 18.9
2018-May-26 09:09 198 18.9
2018-May-26 09:04 201 18.9
2018-May-26 08:48 259 17.8
2018-May-26 08:44 262 0 gusting 2 17.8
2018-May-26 08:39 223 17.8
2018-May-26 08:34 293 17.8
2018-May-26 08:18 297 17.2
2018-May-26 08:13 298 16.7
2018-May-26 08:09 298 16.7
2018-May-26 08:04 298 16.7
2018-May-26 07:48 288 16.7
2018-May-26 07:43 286 16.7
2018-May-26 07:39 286 16.1
2018-May-26 07:34 286 16.1
2018-May-26 07:19 227 16.1
2018-May-26 07:14 227 16.1
2018-May-26 07:08 219 16.1
2018-May-26 07:03 216 16.1
2018-May-26 06:49 192 15.6
2018-May-26 06:44 192 15.6
2018-May-26 06:39 192 15.6
2018-May-26 06:33 192 15.6
2018-May-26 06:19 192 15.6
2018-May-26 06:14 192 15.6
2018-May-26 06:09 192 16.1
2018-May-26 06:04 192 16.1
2018-May-26 05:49 190 15.6
2018-May-26 05:44 187 15.6
2018-May-26 05:39 186 15.6
2018-May-26 05:33 186 15.6
2018-May-26 05:19 183 15.6
2018-May-26 05:13 183 15.6
2018-May-26 05:09 184 15.6
2018-May-26 05:04 184 15.6
2018-May-26 04:48 191 15.6
2018-May-26 04:44 191 15.6
2018-May-26 04:39 191 15.6
2018-May-26 04:34 191 15.6
2018-May-26 04:19 191 15.6
2018-May-26 04:13 191 15.6
2018-May-26 04:09 191 15.6
2018-May-26 04:04 191 15.6
2018-May-26 03:49 191 15.6
2018-May-26 03:44 191 15.6
2018-May-26 03:38 191 15.6
2018-May-26 03:34 192 16.1
2018-May-26 03:19 191 16.1
2018-May-26 03:14 191 16.1
2018-May-26 03:09 191 16.1
2018-May-26 03:04 191 16.1
2018-May-26 02:49 172 1 gusting 4 16.1
2018-May-26 02:43 181 16.1
2018-May-26 02:39 182 16.7
2018-May-26 02:33 178 16.7
2018-May-26 02:19 159 0 gusting 2 16.7
2018-May-26 02:14 159 16.7
2018-May-26 02:09 178 16.7
2018-May-26 02:04 178 16.7
2018-May-26 01:49 179 17.2
2018-May-26 01:43 178 17.2
2018-May-26 01:39 161 17.2
2018-May-26 01:34 183 17.2
2018-May-26 01:19 171 17.2
2018-May-26 01:13 164 17.2
2018-May-26 01:09 146 1 gusting 4 17.2
2018-May-26 01:04 197 17.2
2018-May-26 00:49 197 17.2
2018-May-26 00:44 201 17.2
2018-May-26 00:39 209 17.2
2018-May-26 00:33 216 17.8
2018-May-26 00:19 221 17.2
2018-May-26 00:14 232 17.2
2018-May-26 00:08 232 17.2
2018-May-26 00:04 232 17.2
2018-May-25 23:49 232 17.2
2018-May-25 23:43 232 17.8
2018-May-25 23:39 232 17.8
2018-May-25 23:34 232 17.8
2018-May-25 23:18 199 17.8
2018-May-25 23:14 203 17.8
2018-May-25 23:09 202 17.8
2018-May-25 23:03 221 17.8
2018-May-25 22:48 228 17.8
2018-May-25 22:44 221 17.8
2018-May-25 22:39 228 17.8
2018-May-25 22:33 256 17.8
2018-May-25 22:19 210 17.8
2018-May-25 22:14 197 17.8
2018-May-25 22:09 194 18.3
2018-May-25 22:04 216 18.3
2018-May-25 21:49 286 18.3
2018-May-25 21:44 230 2 gusting 5 18.3
2018-May-25 21:39 237 2 gusting 7 18.3
2018-May-25 21:34 216 2 gusting 7 18.3
2018-May-25 21:19 231 3 gusting 7 18.3
2018-May-25 21:14 226 1 gusting 6 18.3
2018-May-25 21:09 208 18.3
2018-May-25 21:04 181 18.3
2018-May-25 20:49 223 18.3
2018-May-25 20:44 241 0 gusting 6 18.3
2018-May-25 20:38 218 18.3
2018-May-25 20:34 227 1 gusting 6 18.3
2018-May-25 20:19 212 0 gusting 4 18.9
2018-May-25 20:14 236 18.9
2018-May-25 20:09 231 18.9
2018-May-25 20:04 213 0 gusting 6 18.9
2018-May-25 19:48 223 0 gusting 4 18.9
2018-May-25 19:44 217 1 gusting 7 18.9
2018-May-25 19:39 237 2 gusting 6 18.9
2018-May-25 19:34 230 2 gusting 8 18.9
2018-May-25 19:19 225 2 gusting 5 19.4
2018-May-25 19:14 245 1 gusting 10 19.4
2018-May-25 19:09 229 2 gusting 6 20.0
2018-May-25 19:04 210 2 gusting 10 20.0
2018-May-25 18:49 211 2 gusting 11 20.6
2018-May-25 18:44 208 3 gusting 8 20.6
2018-May-25 18:39 217 4 gusting 7 20.6
2018-May-25 18:34 236 3 gusting 12 20.6
2018-May-25 18:19 210 1 gusting 11 20.6
2018-May-25 18:14 236 4 gusting 10 20.6
2018-May-25 18:09 197 1 gusting 8 21.1
2018-May-25 18:04 210 5 gusting 12 21.1
2018-May-25 17:49 230 4 gusting 11 21.1
2018-May-25 17:44 237 2 gusting 8 21.1
2018-May-25 17:38 223 3 gusting 13 21.1
2018-May-25 17:34 195 5 gusting 12 21.1
2018-May-25 17:19 214 4 gusting 7 21.7
2018-May-25 17:14 224 4 gusting 10 21.7
2018-May-25 17:09 223 6 gusting 13 21.7
2018-May-25 17:04 228 6 gusting 15 21.7
2018-May-25 16:48 229 6 gusting 12 21.7
2018-May-25 16:44 217 6 gusting 13 21.7
2018-May-25 16:39 215 6 gusting 13 21.7
2018-May-25 16:34 218 4 gusting 10 22.2
2018-May-25 16:19 198 5 gusting 8 22.2
2018-May-25 16:14 221 1 gusting 10 21.7
2018-May-25 16:09 219 5 gusting 13 21.7
2018-May-25 16:04 224 4 gusting 15 21.7
2018-May-25 15:49 244 3 gusting 8 22.2
2018-May-25 15:44 236 2 gusting 6 22.2
2018-May-25 15:39 244 2 gusting 6 21.7
2018-May-25 15:34 225 6 gusting 14 21.7
2018-May-25 15:19 227 5 gusting 12 22.8
2018-May-25 15:14 241 2 gusting 8 22.2
2018-May-25 15:09 244 4 gusting 14 21.7
2018-May-25 15:04 238 5 gusting 14 22.2
2018-May-25 14:49 215 4 gusting 12 22.2
2018-May-25 14:44 236 5 gusting 13 22.2
2018-May-25 14:39 228 4 gusting 7 21.7
2018-May-25 14:34 220 7 gusting 14 21.7
2018-May-25 14:19 251 3 gusting 10 22.2
2018-May-25 14:13 200 5 gusting 12 22.2
2018-May-25 14:09 224 4 gusting 11 22.2
2018-May-25 14:04 218 3 gusting 12 22.2
2018-May-25 13:49 219 6 gusting 13 22.2
2018-May-25 13:44 222 1 gusting 11 22.2
2018-May-25 13:39 253 2 gusting 6 21.7
2018-May-25 13:34 275 1 gusting 8 21.7
2018-May-25 13:19 207 0 gusting 10 21.1
2018-May-25 13:14 220 3 gusting 10 21.1
2018-May-25 13:09 229 4 gusting 10 21.1
2018-May-25 13:04 248 5 gusting 13 21.1
2018-May-25 12:48 266 3 gusting 5 20.6
2018-May-25 12:44 251 3 gusting 8 20.6
2018-May-25 12:39 231 2 gusting 7 21.1
2018-May-25 12:34 235 4 gusting 10 20.6
2018-May-25 12:19 229 2 gusting 8 21.1
2018-May-25 12:14 285 1 gusting 6 21.1
2018-May-25 12:09 266 4 gusting 10 21.1
2018-May-25 12:04 233 0 gusting 8 21.1
2018-May-25 11:49 222 4 gusting 8 20.6
2018-May-25 11:44 244 20.0
2018-May-25 11:39 254 20.0
2018-May-25 11:34 276 2 gusting 8 19.4
2018-May-25 11:19 254 0 gusting 5 19.4
2018-May-25 11:14 233 2 gusting 7 19.4
2018-May-25 11:09 232 2 gusting 6 19.4
2018-May-25 11:04 222 2 gusting 6 19.4
2018-May-25 10:49 264 3 gusting 7 18.3
2018-May-25 10:44 273 3 gusting 8 18.3
2018-May-25 10:39 271 5 gusting 7 18.3
2018-May-25 10:34 265 1 gusting 6 18.3
2018-May-25 10:19 249 0 gusting 4 18.3
2018-May-25 10:14 230 4 gusting 7 18.3
2018-May-25 10:09 200 18.3
2018-May-25 10:04 208 4 gusting 7 18.9
2018-May-25 09:49 168 1 gusting 7 18.9
2018-May-25 09:44 200 1 gusting 6 18.9
2018-May-25 09:39 169 1 gusting 6 18.9
2018-May-25 09:34 187 18.9
2018-May-25 09:19 208 2 gusting 5 18.3
2018-May-25 09:14 200 2 gusting 6 18.3
2018-May-25 09:09 240 0 gusting 6 18.3
2018-May-25 09:04 245 18.3
2018-May-25 08:49 223 4 gusting 6 17.8
2018-May-25 08:44 200 1 gusting 6 17.8
2018-May-25 08:39 204 2 gusting 6 17.8
2018-May-25 08:34 194 0 gusting 5 17.8
2018-May-25 08:19 209 17.2
2018-May-25 08:14 201 2 gusting 6 17.2
2018-May-25 08:09 156 2 gusting 4 17.2
2018-May-25 08:04 215 17.2
2018-May-25 07:49 150 0 gusting 6 17.2
2018-May-25 07:43 130 2 gusting 5 17.2
2018-May-25 07:39 155 16.7
2018-May-25 07:34 146 2 gusting 5 16.7
2018-May-25 07:19 121 1 gusting 4 16.1
2018-May-25 07:14 155 16.1
2018-May-25 07:09 170 0 gusting 2 16.1
2018-May-25 07:04 170 0 gusting 6 16.1
2018-May-25 06:49 186 15.6
2018-May-25 06:44 186 0 gusting 2 15.6
2018-May-25 06:39 203 15.6
2018-May-25 06:34 178 15.6
2018-May-25 06:19 161 15.6
2018-May-25 06:14 161 15.0
2018-May-25 06:09 161 15.0
2018-May-25 06:04 156 15.0
2018-May-25 05:49 219 15.0
2018-May-25 05:44 219 15.0
2018-May-25 05:39 169 15.0
2018-May-25 05:34 169 15.0
2018-May-25 05:19 157 15.0
2018-May-25 05:14 157 15.0
2018-May-25 05:09 133 15.0
2018-May-25 05:04 121 15.0
2018-May-25 04:49 121 14.4
2018-May-25 04:44 121 14.4
2018-May-25 04:39 121 14.4
2018-May-25 04:34 119 15.0
2018-May-25 04:19 150 0 gusting 4 15.0
2018-May-25 04:14 125 15.0
2018-May-25 04:09 148 1 gusting 2 15.0
2018-May-25 04:04 143 15.0
2018-May-25 03:49 152 15.0
2018-May-25 03:44 152 15.0
2018-May-25 03:39 152 15.0
2018-May-25 03:34 152 14.4
2018-May-25 03:19 146 14.4
2018-May-25 03:14 146 14.4
2018-May-25 03:09 159 14.4
2018-May-25 03:04 212 14.4
2018-May-25 02:49 212 14.4
2018-May-25 02:44 212 14.4
2018-May-25 02:39 212 14.4
2018-May-25 02:34 212 14.4
2018-May-25 02:19 212 14.4
2018-May-25 02:14 212 14.4
2018-May-25 02:09 212 14.4
2018-May-25 02:04 212 14.4
2018-May-25 01:49 212 14.4
2018-May-25 01:44 212 14.4
2018-May-25 01:39 212 14.4
2018-May-25 01:34 212 14.4
2018-May-25 01:19 212 14.4
2018-May-25 01:14 212 14.4
2018-May-25 01:09 212 15.0
2018-May-25 01:04 212 15.0
2018-May-25 00:49 212 15.0
2018-May-25 00:44 212 15.6
2018-May-25 00:39 225 15.6
2018-May-25 00:34 238 15.6
2018-May-25 00:19 229 0 gusting 2 15.6
2018-May-25 00:14 214 15.6
2018-May-25 00:09 208 0 gusting 4 15.6
2018-May-25 00:04 206 15.6
2018-May-24 23:49 208 15.6
2018-May-24 23:44 209 15.6
2018-May-24 23:39 209 15.6
2018-May-24 23:34 209 15.6
2018-May-24 23:19 192 15.6
2018-May-24 23:14 192 15.6
2018-May-24 23:09 192 15.6
2018-May-24 23:04 192 15.6
2018-May-24 22:49 178 15.6
2018-May-24 22:44 179 15.6
2018-May-24 22:39 179 16.1
2018-May-24 22:34 179 16.1
2018-May-24 22:19 179 16.1
2018-May-24 22:14 179 16.1
2018-May-24 22:09 179 16.1
2018-May-24 22:04 179 16.1
2018-May-24 21:49 180 16.1
2018-May-24 21:44 176 16.1
2018-May-24 21:39 176 16.1
2018-May-24 21:34 174 16.1
2018-May-24 21:19 184 16.7
2018-May-24 21:14 195 16.7
2018-May-24 21:09 216 16.7
2018-May-24 21:04 213 1 gusting 2 16.7
2018-May-24 20:49 178 16.7
2018-May-24 20:44 185 16.7
2018-May-24 20:39 185 16.7
2018-May-24 20:34 191 16.7
2018-May-24 20:19 195 16.7
2018-May-24 20:14 199 16.7
2018-May-24 20:09 194 16.7
2018-May-24 20:04 198 0 gusting 4 16.7
2018-May-24 19:49 194 17.2
2018-May-24 19:44 202 17.2
2018-May-24 19:39 189 0 gusting 2 17.2
2018-May-24 19:34 189 17.2
2018-May-24 19:19 180 17.2
2018-May-24 19:14 185 17.2
2018-May-24 19:09 171 0 gusting 2 17.2
2018-May-24 19:04 190 17.2
2018-May-24 18:49 190 17.2
2018-May-24 18:44 193 17.2
2018-May-24 18:39 202 17.2
2018-May-24 18:34 198 17.2
2018-May-24 18:19 192 17.2
2018-May-24 18:14 194 17.2
2018-May-24 18:09 196 16.7
2018-May-24 18:04 196 16.7
2018-May-24 17:49 179 16.7
2018-May-24 17:44 179 16.7
2018-May-24 17:39 170 16.7
2018-May-24 17:34 190 0 gusting 2 16.7
2018-May-24 17:19 230 16.7
2018-May-24 17:14 192 16.7
2018-May-24 17:09 211 16.7
2018-May-24 17:04 227 16.7
2018-May-24 16:49 198 1 gusting 5 16.7
2018-May-24 16:44 222 16.7
2018-May-24 16:39 181 1 gusting 6 16.7
2018-May-24 16:34 215 0 gusting 6 17.2
2018-May-24 16:19 218 0 gusting 4 17.2
2018-May-24 16:14 233 0 gusting 6 17.2
2018-May-24 16:09 215 3 gusting 10 17.2
2018-May-24 16:04 217 1 gusting 10 17.2
2018-May-24 15:49 222 6 gusting 13 17.8
2018-May-24 15:44 220 0 gusting 8 17.8
2018-May-24 15:39 235 0 gusting 8 17.8
2018-May-24 15:34 252 6 gusting 13 18.3
2018-May-24 15:19 272 1 gusting 15 18.3
2018-May-24 15:14 245 5 gusting 13 18.3
2018-May-24 15:09 237 2 gusting 10 18.3
2018-May-24 15:04 229 6 gusting 17 18.9
2018-May-24 14:49 259 4 gusting 12 19.4
2018-May-24 14:44 244 4 gusting 11 20.0
2018-May-24 14:39 245 0 gusting 11 20.6
2018-May-24 14:34 231 4 gusting 12 20.6
2018-May-24 14:19 256 2 gusting 10 20.6
2018-May-24 14:14 233 5 gusting 11 21.1
2018-May-24 14:09 265 0 gusting 4 21.1
2018-May-24 14:04 241 1 gusting 10 21.1
2018-May-24 13:49 229 3 gusting 13 20.6
2018-May-24 13:44 267 2 gusting 10 20.6
2018-May-24 13:39 266 2 gusting 8 20.6
2018-May-24 13:34 222 1 gusting 8 20.6
2018-May-24 13:19 286 3 gusting 7 20.6
2018-May-24 13:14 219 1 gusting 4 20.6
2018-May-24 13:09 212 0 gusting 5 20.6
2018-May-24 13:04 267 4 gusting 10 20.6
2018-May-24 12:49 228 1 gusting 8 20.6
2018-May-24 12:44 247 2 gusting 10 20.6
2018-May-24 12:39 243 2 gusting 6 20.6
2018-May-24 12:34 209 4 gusting 8 20.6
2018-May-24 12:19 213 0 gusting 6 21.1
2018-May-24 12:14 259 3 gusting 11 21.1
2018-May-24 12:09 262 2 gusting 11 21.1
2018-May-24 12:04 259 1 gusting 7 21.1
2018-May-24 11:49 213 2 gusting 10 21.1
2018-May-24 11:44 281 2 gusting 7 21.1
2018-May-24 11:39 267 5 gusting 11 21.1
2018-May-24 11:34 250 2 gusting 11 21.1
2018-May-24 11:19 238 3 gusting 6 21.1
2018-May-24 11:14 195 1 gusting 5 21.1
2018-May-24 11:09 208 2 gusting 8 20.6
2018-May-24 11:04 236 3 gusting 10 20.6
2018-May-24 10:49 214 5 gusting 11 20.6
2018-May-24 10:44 243 4 gusting 8 20.6
2018-May-24 10:39 219 5 gusting 11 20.6
2018-May-24 10:34 240 4 gusting 10 20.0
2018-May-24 10:19 222 2 gusting 12 19.4
2018-May-24 10:14 218 4 gusting 10 19.4
2018-May-24 10:09 224 4 gusting 11 19.4
2018-May-24 10:04 222 4 gusting 13 18.9